Weather History for KSHN - April, 2013

Change the Weather History Date:

Sunday, April 28, 2013

  Actual Average Record
Temperature  
Mean Temperature 52 °F -  
Max Temperature 57 °F 62 °F 86 °F (1987)
Min Temperature 46 °F 41 °F 30 °F (2002)
Degree Days  
Heating Degree Days 14    
Growing Degree Days 2 (Base 50)    
Moisture  
Dew Point 45 °F    
Average Humidity 85    
Maximum Humidity 100    
Minimum Humidity 53    
Precipitation  
Precipitation 0.40 in - - ()
Sea Level Pressure  
Sea Level Pressure 30.16 in    
Wind  
Wind Speed 10 mph (SW)    
Max Wind Speed 20 mph    
Max Gust Speed 30 mph    
Visibility 9 miles    
Events Rain    
Averages and records for this station are not official NWS values.
T = Trace of Precipitation, MM = Missing Value Source: NWS Daily Summary

Daily Weather History Graph

Daily Weather History Graph

Search for Another Location

Airport or City:

Trip Planner

Search our weather history database for the weather conditions in past years. The results will help you decide how hot, cold, wet, or windy it might be!

Date:

Astronomy

Apr. 28, 2013 Rise Set
Actual Time 6:00 AM PDT 8:20 PM PDT
Civil Twilight 5:27 AM PDT 8:54 PM PDT
Nautical Twilight 4:45 AM PDT 9:36 PM PDT
Astronomical Twilight 3:57 AM PDT 10:24 PM PDT
Moon No Moon Rise 8:15 AM PDT (4/28)
Length of Visible Light 15h 26m
Length of Day
14h 19m
Waning Gibbous, 88% of the Moon is Illuminated
Apr 28
Waning Gibbous
May 2
Last Quarter
May 9
New
May 17
First Quarter
May 24
Full

Hourly Weather History & Observations

Time (PDT) Temp. Windchill Dew Point Humidity Pressure Visibility Wind Dir Wind Speed Gust Speed Precip Events Conditions
12:09 AM 48.2 °F - 46.4 °F 93% 30.20 in 10.0 mi SW 6.9 mph - N/A   Overcast
12:26 AM 48.2 °F - 46.4 °F 93% 30.21 in 10.0 mi SW 5.8 mph - N/A   Overcast
12:53 AM 48.0 °F - 46.0 °F 93% 30.22 in 10.0 mi SW 8.1 mph - N/A   Mostly Cloudy
1:02 AM 48.2 °F - 46.4 °F 93% 30.21 in 10.0 mi WSW 8.1 mph - N/A   Mostly Cloudy
1:10 AM 48.2 °F - 46.4 °F 93% 30.21 in 10.0 mi WSW 6.9 mph - N/A   Overcast
1:25 AM 48.2 °F - 46.4 °F 93% 30.21 in 10.0 mi WSW 9.2 mph - N/A   Overcast
1:53 AM 48.0 °F - 46.0 °F 93% 30.21 in 10.0 mi SW 10.4 mph - N/A   Overcast
2:53 AM 46.9 °F - 45.0 °F 93% 30.19 in 10.0 mi SW 11.5 mph - N/A   Scattered Clouds
3:53 AM 46.9 °F - 45.0 °F 93% 30.20 in 10.0 mi SW 9.2 mph - N/A   Overcast
4:06 AM 46.4 °F 41.5 °F 44.6 °F 93% 30.19 in 10.0 mi SW 10.4 mph - N/A   Overcast
4:53 AM 46.9 °F - 45.0 °F 93% 30.19 in 10.0 mi SW 8.1 mph - N/A   Mostly Cloudy
5:11 AM 46.4 °F 41.9 °F 44.6 °F 93% 30.19 in 10.0 mi SW 9.2 mph - N/A   Mostly Cloudy
5:53 AM 46.4 °F 41.9 °F 44.6 °F 93% 30.18 in 10.0 mi SW 9.2 mph - N/A   Scattered Clouds
6:53 AM 48.0 °F - 46.0 °F 93% 30.19 in 8.0 mi SW 8.1 mph - 0.01 in Rain Light Rain
7:29 AM 48.2 °F - 46.4 °F 93% 30.19 in 3.0 mi SW 8.1 mph - 0.01 in Rain Light Rain
7:36 AM 48.2 °F - 46.4 °F 93% 30.19 in 2.5 mi SSW 8.1 mph - 0.02 in Rain Light Rain
7:40 AM 48.2 °F - 46.4 °F 93% 30.19 in 3.0 mi SSW 8.1 mph - 0.02 in Rain Light Rain
7:53 AM 48.9 °F - 46.9 °F 93% 30.20 in 8.0 mi WSW 9.2 mph - 0.02 in Rain Light Rain
8:30 AM 50.0 °F - 46.4 °F 87% 30.20 in 10.0 mi SW 11.5 mph - 0.00 in   Mostly Cloudy
8:40 AM 51.8 °F - 46.4 °F 82% 30.19 in 10.0 mi WSW 11.5 mph - 0.00 in   Scattered Clouds
8:53 AM 51.1 °F - 46.0 °F 83% 30.20 in 10.0 mi WSW 12.7 mph - 0.00 in   Scattered Clouds
9:53 AM 50.0 °F - 46.9 °F 89% 30.21 in 10.0 mi WSW 10.4 mph - 0.01 in   Overcast
10:53 AM 53.1 °F - 45.0 °F 74% 30.21 in 10.0 mi WSW 18.4 mph - N/A   Mostly Cloudy
11:53 AM 53.1 °F - 43.0 °F 69% 30.20 in 10.0 mi SW 15.0 mph 27.6 mph N/A   Overcast
12:53 PM 55.9 °F - 44.1 °F 64% 30.20 in 10.0 mi SW 19.6 mph 24.2 mph 0.00 in   Mostly Cloudy
1:36 PM 53.6 °F - 42.8 °F 67% 30.19 in 10.0 mi WSW 16.1 mph 29.9 mph N/A   Overcast
1:48 PM 53.6 °F - 41.0 °F 62% 30.19 in 10.0 mi WSW 15.0 mph 24.2 mph N/A   Mostly Cloudy
1:53 PM 55.0 °F - 39.9 °F 57% 30.19 in 10.0 mi WSW 13.8 mph 24.2 mph N/A   Mostly Cloudy
2:53 PM 55.9 °F - 41.0 °F 57% 30.19 in 10.0 mi SW 19.6 mph 25.3 mph N/A   Mostly Cloudy
3:53 PM 57.0 °F - 39.9 °F 53% 30.17 in 10.0 mi WSW 12.7 mph 24.2 mph N/A   Scattered Clouds
4:53 PM 54.0 °F - 39.0 °F 57% 30.16 in 10.0 mi SW 15.0 mph 21.9 mph N/A   Overcast
5:53 PM 52.0 °F - 41.0 °F 66% 30.14 in 10.0 mi WSW 9.2 mph - N/A   Overcast
6:10 PM 51.8 °F - 42.8 °F 71% 30.12 in 10.0 mi SW 11.5 mph - N/A   Overcast
6:53 PM 48.9 °F - 44.1 °F 83% 30.12 in 7.0 mi WSW 9.2 mph - 0.01 in Rain Light Rain
7:32 PM 48.2 °F - 44.6 °F 87% 30.08 in 9.0 mi SW 9.2 mph - 0.05 in Rain Light Rain
7:53 PM 48.0 °F - 46.0 °F 93% 30.08 in 9.0 mi SSW 8.1 mph - 0.05 in Rain Light Rain
8:10 PM 48.2 °F - 46.4 °F 93% 30.06 in 7.0 mi SSW 8.1 mph - 0.01 in Rain Light Rain
8:24 PM 48.2 °F - 46.4 °F 93% 30.05 in 8.0 mi SSW 8.1 mph - 0.02 in Rain Light Rain
8:45 PM 48.2 °F - 44.6 °F 87% 30.04 in 7.0 mi SSW 10.4 mph - 0.04 in Rain Light Rain
8:53 PM 46.9 °F - 46.0 °F 97% 30.05 in 6.0 mi SSW 8.1 mph - 0.05 in Rain Light Rain
9:00 PM 46.4 °F 41.9 °F 46.4 °F 100% 30.05 in 6.0 mi SSW 9.2 mph - 0.01 in Rain Light Rain
9:53 PM 46.9 °F - 46.0 °F 97% 30.03 in 5.0 mi SW 5.8 mph - 0.07 in Rain Light Rain
10:53 PM 46.9 °F - 46.0 °F 97% 29.99 in 7.0 mi SSW 6.9 mph - 0.09 in Rain Light Rain
11:53 PM 48.0 °F - 46.0 °F 93% 29.94 in 8.0 mi SSW 10.4 mph - 0.09 in Rain Light Rain